ギブス彗星

331P/Gibbs (2010)

English version
Home page
Updated on November 3, 2020

---------------------------------------------------------------------

・ プロフィール

発見日 2012年3月22日
発見光度 18.1等
発見者 A. R. Gibbs (Mount Lemmon)

・ 写真集

・ 軌道要素

Epoch 2010 Mar. 25.0 TT = JDT 2455280.5
T 2010 Mar. 24.31347 TT                                 MPCW
q   2.8753430            (2000.0)            P               Q
n   0.18940364     Peri.  176.58903     +0.83382831     -0.54261602
a   3.0029205      Node   216.86351     +0.50238438     +0.82210295
e   0.0424845      Incl.    9.73890     +0.22877998     +0.17237924
P   5.20
From 106 observations 2004 Aug. 26-2013 May 12, mean residual 0".6.

・ 光度変化

        m1 =   15.0 + 5 logΔ +  10.0 log r           [   ,545]  (              〜2011年 9月19日)
        m1 = -327   + 5 logΔ + 750   log r(t - 730)  [545,920]  (2011年 9月19日〜2012年 9月28日)
        m1 =   15.0 + 5 logΔ +  10.0 log r           [920,   ]  (2012年 9月28日〜              )

---------------------------------------------------------------------

軌道要素はM.P.E.C. 2015-K139に掲載されたものです。
光度グラフはComet for Windowsで作成したものです。

---------------------------------------------------------------------

Copyright(C) Seiichi Yoshida (comet@aerith.net). All rights reserved.